Vorticity
23 -0 -2 12 6 15 10 13 7 3 16 6 7 8 6 10 12 20 14 9 3 5 12 14 7 7 8 6 3 8 3 4 6 5 7 5 7 5 8 7 7 8 6 6
6 -9 0 7 4 3 5 16 17 18 17 6 7 6 5 2 5 8 16 13 6 5 2 8 2 -5 1 1 3 2 7 4 5 5 7 5 8 8 8 7 7 8 9 9
-9 2 5 3 6 7 8 -2 16 30 12 8 8 7 7 9 4 1 11 9 9 7 8 6 11 4 2 1 2 8 7 5 5 7 6 4 6 6 7 6 5 5 6 7
3 11 13 2 5 1 4 1 13 11 6 1 8 18 13 9 10 9 6 21 16 13 16 11 8 6 -0 2 7 7 5 6 8 8 7 5 4 5 4 6 8 3 10 6
2 7 9 13 0 -0 3 4 8 20 22 1 10 -1 6 8 11 12 15 6 5 5 21 3 4 4 8 13 9 8 10 8 8 9 7 5 5 6 6 6 5 3 11 15
-6 1 14 9 0 4 6 23 5 5 6 4 11 6 1 6 15 18 15 8 7 5 6 11 3 -5 -5 -2 5 11 9 9 7 8 8 8 6 5 5 5 7 6 3 5
4 7 5 -13 18 3 13 6 8 12 17 1 0 0 4 2 5 7 25 22 10 2 5 4 17 -6 1 -1 6 8 7 7 9 8 6 7 7 6 5 6 8 12 8 5
5 3 3 10 2 0 22 -3 -0 12 12 4 -6 11 13 14 9 9 11 24 29 12 8 5 3 6 2 -0 5 6 7 6 7 7 5 5 6 7 6 5 6 7 9 7
16 5 6 -1 7 8 6 -8 -5 4 -6 13 12 15 6 -2 10 3 8 10 20 21 2 10 7 7 1 4 3 6 6 6 4 8 7 5 6 7 6 4 3 4 5 5
21 2 4 7 4 6 10 -1 1 -5 3 -9 -0 12 11 1 11 15 2 11 10 12 14 19 12 12 3 2 -1 3 9 3 7 6 6 4 4 7 8 6 4 5 5 6
16 12 -1 0 10 4 -1 38 1 16 12 -3 9 10 -7 10 -9 10 11 7 9 16 12 23 22 11 26 11 7 1 6 9 6 8 5 7 7 6 7 6 6 7 7 8
22 24 7 3 11 5 6 2 -2 1 4 5 3 3 -2 4 2 7 14 9 10 15 23 33 21 3 31 7 12 7 9 12 6 6 8 10 7 5 7 10 10 8 9 7
21 9 23 4 4 12 1 -5 13 1 -2 1 7 3 4 0 -3 15 7 11 12 12 19 19 9 17 14 6 13 11 9 9 9 10 7 6 16 8 7 8 9 9 9 11
3 9 21 13 9 12 8 -3 -5 5 1 -6 13 -2 8 -7 11 11 2 8 14 7 12 18 26 10 3 13 7 8 5 3 7 8 0 7 9 9 2 13 -5 10 9 4
-8 20 28 30 -4 -2 5 2 11 7 16 4 -0 0 -3 -4 5 4 2 14 14 9 11 12 12 11 14 2 4 9 7 3 3 4 5 2 3 10 6 12 8 13 10 6
-6 9 3 12 7 12 14 7 10 6 7 12 16 -2 -3 4 -1 11 16 14 6 13 5 12 12 13 13 14 14 11 11 13 12 11 12 13 12 8 10 11 14 12 4 6
5 5 7 8 -0 1 9 16 8 14 11 13 17 11 2 -1 2 17 14 7 10 9 4 5 11 11 9 6 7 7 7 8 8 7 7 7 6 5 5 6 8 9 13 15
6 5 10 4 8 2 5 13 14 4 22 10 18 13 7 1 -5 9 6 3 3 7 6 4 7 13 9 7 7 13 12 11 11 12 12 10 8 9 9 10 13 15 15 12
1 4 5 4 0 -1 8 13 9 15 24 15 6 7 2 -3 2 21 10 4 6 14 20 6 1 11 9 6 9 12 14 10 11 11 11 18 17 16 17 17 12 12 9 12
5 -11 13 6 4 4 25 16 23 -5 32 14 12 7 4 10 1 8 6 13 13 15 19 5 10 11 6 7 17 16 15 18 16 19 19 15 12 11 12 12 9 7 6 10
15 24 6 1 5 15 23 29 4 -6 36 4 7 4 8 -7 11 -18 9 1 11 22 8 9 12 8 6 10 18 20 11 11 28 20 8 11 11 8 7 9 11 12 14 13
20 12 14 5 8 19 12 14 22 23 20 11 5 7 -2 8 3 9 12 -2 12 14 14 4 11 6 6 12 13 12 9 17 -4 6 7 3 10 12 13 12 10 9 10 10
15 10 9 9 -3 -1 -0 24 9 26 3 1 2 -6 -4 6 14 5 2 2 7 9 18 8 9 6 8 14 14 10 10 12 12 13 7 9 10 10 10 9 10 10 9 9
10 9 15 19 18 10 16 -2 5 -2 -0 15 15 15 6 12 2 3 6 20 11 13 12 6 0 0 10 15 10 10 9 13 7 8 8 9 9 9 9 9 9 10 9 9
10 7 7 19 21 0 11 5 6 7 -6 15 8 10 7 0 10 14 14 13 12 26 33 35 7 7 13 12 12 8 7 10 8 9 8 7 8 10 8 9 8 8 9 9
8 11 7 7 9 -3 -3 10 4 15 15 11 21 2 12 19 17 12 7 15 15 14 27 16 10 12 14 11 12 8 7 9 9 8 9 9 9 9 8 8 9 10 9 9
Height
5910 5910 5910 5909 5907 5907 5906 5905 5904 5904 5903 5904 5905 5903 5903 5902 5901 5902 5901 5901 5898 5898 5902 5903 5904 5908 5912 5916 5919 5921 5923 5925 5927 5927 5928 5928 5929 5930 5930 5929 5929 5929 5929 5929
5911 5911 5912 5911 5910 5908 5906 5906 5904 5902 5903 5905 5905 5905 5904 5904 5904 5904 5904 5904 5903 5903 5904 5908 5911 5913 5916 5918 5920 5923 5925 5926 5926 5927 5928 5929 5930 5930 5930 5930 5929 5929 5929 5929
5907 5912 5912 5913 5911 5909 5908 5908 5906 5905 5904 5906 5907 5907 5907 5906 5906 5907 5906 5907 5907 5908 5908 5909 5911 5915 5917 5920 5922 5923 5925 5926 5927 5928 5929 5930 5931 5931 5931 5929 5929 5929 5929 5928
5908 5911 5913 5914 5912 5911 5911 5910 5909 5906 5907 5908 5908 5910 5909 5909 5908 5908 5908 5908 5909 5909 5910 5911 5912 5915 5918 5921 5922 5923 5925 5926 5927 5929 5930 5931 5932 5932 5930 5929 5929 5929 5929 5929
5908 5911 5913 5914 5915 5912 5912 5910 5910 5910 5910 5910 5911 5912 5911 5911 5909 5909 5910 5910 5911 5912 5913 5913 5913 5916 5919 5922 5924 5925 5926 5927 5928 5928 5929 5931 5932 5932 5931 5930 5930 5929 5928 5929
5906 5910 5912 5914 5915 5913 5912 5911 5910 5913 5912 5913 5913 5913 5910 5909 5910 5909 5908 5909 5912 5913 5914 5916 5916 5917 5919 5922 5924 5926 5927 5928 5928 5928 5929 5930 5930 5930 5930 5930 5930 5930 5929 5928
5905 5908 5911 5913 5914 5914 5912 5911 5911 5913 5913 5914 5913 5914 5912 5911 5909 5908 5908 5908 5908 5910 5913 5915 5917 5918 5920 5921 5923 5925 5926 5927 5928 5928 5928 5929 5929 5929 5929 5929 5929 5929 5928 5926
5903 5908 5909 5912 5913 5914 5914 5912 5912 5913 5914 5915 5915 5915 5914 5914 5912 5910 5906 5904 5906 5909 5910 5913 5914 5916 5918 5919 5921 5923 5924 5926 5927 5928 5928 5928 5928 5928 5928 5928 5928 5927 5927 5925
5902 5905 5907 5909 5911 5914 5915 5914 5913 5914 5915 5915 5916 5915 5915 5914 5913 5911 5909 5907 5905 5906 5907 5909 5910 5912 5914 5917 5919 5921 5923 5924 5925 5926 5926 5926 5926 5926 5926 5926 5926 5925 5925 5924
5899 5903 5904 5907 5910 5912 5913 5914 5915 5914 5916 5916 5915 5915 5915 5915 5912 5911 5909 5907 5904 5904 5903 5904 5908 5911 5912 5914 5917 5920 5921 5922 5923 5924 5925 5925 5924 5924 5924 5924 5924 5923 5921 5919
5897 5900 5902 5905 5907 5909 5911 5910 5912 5913 5914 5915 5915 5916 5915 5915 5913 5911 5909 5908 5903 5901 5900 5899 5901 5906 5910 5914 5916 5918 5920 5921 5922 5923 5924 5925 5924 5923 5922 5921 5920 5919 5917 5916
5894 5896 5897 5901 5904 5906 5908 5909 5911 5913 5914 5913 5913 5914 5913 5913 5912 5911 5909 5907 5905 5902 5898 5895 5897 5902 5905 5909 5912 5915 5916 5919 5920 5920 5921 5921 5921 5920 5918 5917 5916 5914 5912 5912
5893 5893 5895 5898 5902 5903 5905 5908 5909 5911 5912 5913 5913 5914 5912 5911 5911 5910 5908 5906 5904 5902 5899 5897 5898 5901 5903 5906 5909 5912 5914 5915 5916 5917 5917 5917 5917 5915 5914 5914 5913 5912 5912 5908
5889 5891 5892 5896 5901 5901 5902 5904 5905 5906 5908 5911 5913 5912 5911 5911 5911 5909 5908 5907 5904 5903 5900 5899 5898 5901 5902 5904 5907 5909 5909 5910 5911 5912 5912 5910 5908 5911 5911 5910 5908 5909 5909 5907
5888 5888 5890 5892 5895 5896 5898 5900 5901 5903 5905 5906 5910 5910 5910 5909 5910 5909 5908 5907 5905 5903 5901 5900 5900 5901 5902 5903 5903 5904 5904 5904 5906 5907 5907 5903 5900 5906 5906 5906 5905 5904 5901 5901
5885 5887 5889 5890 5892 5893 5894 5894 5896 5898 5899 5902 5905 5907 5908 5907 5907 5907 5906 5905 5904 5903 5901 5901 5901 5901 5900 5902 5903 5903 5902 5903 5902 5902 5903 5903 5903 5903 5903 5902 5902 5901 5899 5897
5881 5883 5885 5886 5887 5888 5888 5890 5891 5892 5894 5897 5900 5905 5905 5904 5904 5905 5905 5904 5902 5900 5900 5901 5900 5901 5901 5902 5903 5902 5902 5901 5899 5898 5899 5899 5899 5898 5898 5898 5897 5898 5898 5895
5876 5877 5878 5880 5881 5880 5883 5884 5885 5886 5888 5891 5896 5899 5900 5900 5901 5902 5903 5902 5901 5900 5898 5898 5898 5899 5900 5902 5902 5902 5899 5897 5896 5894 5894 5895 5894 5895 5895 5894 5894 5894 5894 5893
5869 5871 5872 5872 5874 5875 5876 5878 5879 5880 5883 5886 5890 5893 5895 5896 5897 5898 5898 5898 5898 5898 5897 5896 5895 5896 5897 5898 5898 5897 5896 5895 5894 5892 5892 5893 5892 5893 5893 5893 5892 5892 5891 5890
5861 5864 5866 5867 5867 5867 5870 5872 5874 5875 5875 5882 5885 5889 5891 5892 5894 5893 5893 5894 5895 5895 5894 5893 5893 5893 5895 5896 5896 5895 5894 5892 5891 5891 5892 5890 5891 5891 5891 5891 5891 5891 5889 5888
5850 5853 5857 5860 5860 5862 5865 5867 5870 5872 5877 5877 5881 5884 5886 5889 5889 5886 5889 5890 5890 5891 5891 5892 5892 5892 5893 5894 5894 5894 5893 5891 5891 5892 5891 5892 5892 5891 5890 5891 5890 5890 5888 5887
5843 5846 5849 5852 5854 5858 5861 5863 5866 5869 5870 5872 5876 5879 5882 5883 5882 5881 5883 5886 5886 5886 5887 5890 5890 5890 5890 5891 5892 5892 5892 5892 5892 5892 5892 5892 5891 5891 5890 5890 5890 5889 5888 5887
5834 5839 5842 5845 5848 5855 5857 5859 5861 5863 5866 5869 5871 5874 5877 5877 5876 5875 5878 5879 5880 5881 5883 5886 5887 5886 5888 5888 5889 5891 5891 5892 5892 5892 5893 5892 5891 5892 5891 5890 5890 5889 5887 5886
5828 5831 5832 5837 5843 5849 5852 5855 5858 5861 5863 5865 5866 5869 5871 5872 5871 5870 5872 5873 5874 5875 5878 5881 5883 5884 5886 5886 5888 5889 5890 5891 5891 5892 5891 5891 5890 5890 5890 5890 5889 5888 5887 5885
5819 5824 5827 5830 5836 5842 5846 5850 5853 5855 5857 5858 5859 5861 5863 5865 5866 5865 5868 5869 5869 5870 5872 5874 5878 5881 5883 5884 5886 5887 5888 5889 5890 5890 5890 5890 5890 5891 5890 5890 5889 5888 5887 5886
5809 5817 5821 5827 5832 5836 5841 5845 5848 5849 5849 5851 5854 5855 5856 5857 5860 5861 5863 5865 5868 5868 5870 5871 5875 5877 5879 5880 5882 5885 5886 5887 5888 5889 5889 5890 5891 5891 5891 5890 5889 5888 5886 5885